Time,TemperatureF,DewpointF,PressureIn,WindDirection,WindDirectionDegrees,WindSpeedMPH,WindSpeedGustMPH,Humidity,HourlyPrecipIn,Conditions,Clouds,dailyrainin,SoftwareType,DateUTC
2013-07-02 00:01:00,70.9,69.1,29.92,South,187,0.0,0.0,94,0.00,,,0.03,Wunderground v.1.15,2013-07-02 04:01:00,
2013-07-02 00:02:00,71.0,69.2,29.92,South,187,0.0,1.0,94,0.00,,,0.03,Wunderground v.1.15,2013-07-02 04:02:00,
2013-07-02 00:04:00,71.0,69.5,29.92,South,187,0.0,1.0,95,0.00,,,0.00,Wunderground v.1.15,2013-07-02 04:04:00,
2013-07-02 00:05:00,71.0,69.5,29.92,South,187,0.0,1.0,95,0.00,,,0.00,Wunderground v.1.15,2013-07-02 04:05:00,
2013-07-02 00:08:00,71.0,70.0,29.92,South,187,0.0,2.0,95,0.00,,,0.00,weatherlink.com 1.10,2013-07-02 04:08:00,
2013-07-02 00:13:00,71.0,69.5,29.92,South,187,0.0,0.0,95,0.00,,,0.00,Wunderground v.1.15,2013-07-02 04:13:00,
2013-07-02 00:18:00,71.0,69.5,29.92,South,187,0.0,0.0,95,0.00,,,0.00,Wunderground v.1.15,2013-07-02 04:18:00,
2013-07-02 00:23:00,71.0,69.5,29.92,South,187,0.0,0.0,95,0.00,,,0.00,Wunderground v.1.15,2013-07-02 04:23:00,
2013-07-02 00:28:00,71.0,69.5,29.93,South,187,0.0,0.0,95,0.00,,,0.00,Wunderground v.1.15,2013-07-02 04:28:00,
2013-07-02 00:34:00,71.0,69.5,29.93,South,187,0.0,0.0,95,0.00,,,0.00,Wunderground v.1.15,2013-07-02 04:34:00,
2013-07-02 00:39:00,71.0,69.5,29.93,South,187,0.0,0.0,95,0.00,,,0.00,Wunderground v.1.15,2013-07-02 04:39:00,
2013-07-02 00:44:00,70.9,69.4,29.93,South,187,0.0,0.0,95,0.00,,,0.00,Wunderground v.1.15,2013-07-02 04:44:00,
2013-07-02 00:49:00,71.0,69.5,29.93,South,187,0.0,0.0,95,0.00,,,0.00,Wunderground v.1.15,2013-07-02 04:49:00,
2013-07-02 00:55:00,71.0,69.5,29.93,South,187,0.0,0.0,95,0.00,,,0.00,Wunderground v.1.15,2013-07-02 04:55:00,
2013-07-02 01:00:00,70.9,69.4,29.93,South,187,0.0,0.0,95,0.00,,,0.00,Wunderground v.1.15,2013-07-02 05:00:00,
2013-07-02 01:06:00,70.8,69.3,29.93,South,187,0.0,0.0,95,0.00,,,0.00,Wunderground v.1.15,2013-07-02 05:06:00,
2013-07-02 01:11:00,70.7,69.2,29.93,South,187,0.0,0.0,95,0.00,,,0.00,Wunderground v.1.15,2013-07-02 05:11:00,
2013-07-02 01:16:00,70.7,69.2,29.93,South,187,0.0,0.0,95,0.00,,,0.00,Wunderground v.1.15,2013-07-02 05:16:00,
2013-07-02 01:21:00,70.6,69.1,29.94,South,187,0.0,0.0,95,0.00,,,0.00,Wunderground v.1.15,2013-07-02 05:21:00,
2013-07-02 01:26:00,70.6,69.1,29.93,South,187,0.0,0.0,95,0.00,,,0.00,Wunderground v.1.15,2013-07-02 05:26:00,
2013-07-02 01:31:00,70.6,69.1,29.94,South,187,0.0,0.0,95,0.00,,,0.00,Wunderground v.1.15,2013-07-02 05:31:00,
2013-07-02 01:37:00,70.5,69.3,29.94,South,187,0.0,0.0,96,0.00,,,0.00,Wunderground v.1.15,2013-07-02 05:37:00,
2013-07-02 01:42:00,70.4,69.2,29.94,South,187,0.0,0.0,96,0.00,,,0.00,Wunderground v.1.15,2013-07-02 05:42:00,
2013-07-02 01:47:00,70.4,69.2,29.94,South,187,0.0,0.0,96,0.00,,,0.00,Wunderground v.1.15,2013-07-02 05:47:00,
2013-07-02 01:53:00,70.5,69.0,29.93,South,187,0.0,0.0,96,0.00,,,0.00,weatherlink.com 1.10,2013-07-02 05:53:00,
2013-07-02 01:58:00,70.5,69.3,29.93,South,187,0.0,0.0,96,0.00,,,0.00,Wunderground v.1.15,2013-07-02 05:58:00,
2013-07-02 02:04:00,70.5,69.3,29.94,South,187,0.0,0.0,96,0.00,,,0.00,Wunderground v.1.15,2013-07-02 06:04:00,
2013-07-02 02:10:00,70.5,69.3,29.93,South,187,0.0,0.0,96,0.00,,,0.00,Wunderground v.1.15,2013-07-02 06:10:00,
2013-07-02 02:15:00,70.4,69.2,29.93,South,187,0.0,0.0,96,0.00,,,0.00,Wunderground v.1.15,2013-07-02 06:15:00,
2013-07-02 02:20:00,70.4,69.2,29.93,South,187,0.0,0.0,96,0.00,,,0.00,Wunderground v.1.15,2013-07-02 06:20:00,
2013-07-02 02:26:00,70.3,69.1,29.93,South,187,0.0,0.0,96,0.00,,,0.00,Wunderground v.1.15,2013-07-02 06:26:00,
2013-07-02 02:31:00,70.4,69.2,29.93,South,187,0.0,0.0,96,0.00,,,0.00,Wunderground v.1.15,2013-07-02 06:31:00,
2013-07-02 02:36:00,70.4,69.2,29.93,South,187,0.0,0.0,96,0.00,,,0.00,Wunderground v.1.15,2013-07-02 06:36:00,
2013-07-02 02:41:00,70.4,69.2,29.93,South,187,0.0,0.0,96,0.00,,,0.00,Wunderground v.1.15,2013-07-02 06:41:00,
2013-07-02 02:47:00,70.4,69.2,29.94,South,187,0.0,0.0,96,0.00,,,0.00,Wunderground v.1.15,2013-07-02 06:47:00,
2013-07-02 02:52:00,70.5,69.3,29.93,South,187,0.0,0.0,96,0.00,,,0.00,Wunderground v.1.15,2013-07-02 06:52:00,
2013-07-02 02:58:00,70.5,69.3,29.94,South,187,0.0,0.0,96,0.00,,,0.00,Wunderground v.1.15,2013-07-02 06:58:00,
2013-07-02 03:04:00,70.5,69.3,29.93,South,187,0.0,0.0,96,0.00,,,0.00,Wunderground v.1.15,2013-07-02 07:04:00,
2013-07-02 03:10:00,70.5,69.0,29.94,South,187,0.0,0.0,96,0.00,,,0.00,weatherlink.com 1.10,2013-07-02 07:10:00,
2013-07-02 03:15:00,70.5,69.3,29.94,South,187,0.0,0.0,96,0.00,,,0.00,Wunderground v.1.15,2013-07-02 07:15:00,
2013-07-02 03:21:00,70.5,69.3,29.94,South,187,0.0,0.0,96,0.00,,,0.00,Wunderground v.1.15,2013-07-02 07:21:00,
2013-07-02 03:26:00,70.5,69.3,29.94,South,187,0.0,0.0,96,0.00,,,0.00,Wunderground v.1.15,2013-07-02 07:26:00,
2013-07-02 03:32:00,70.6,69.4,29.94,South,187,0.0,0.0,96,0.00,,,0.00,Wunderground v.1.15,2013-07-02 07:32:00,
2013-07-02 03:38:00,70.6,69.4,29.94,South,187,0.0,0.0,96,0.00,,,0.00,Wunderground v.1.15,2013-07-02 07:38:00,
2013-07-02 03:43:00,70.6,69.4,29.94,South,187,0.0,0.0,96,0.00,,,0.00,Wunderground v.1.15,2013-07-02 07:43:00,
2013-07-02 03:49:00,70.7,69.5,29.94,South,187,0.0,0.0,96,0.00,,,0.00,Wunderground v.1.15,2013-07-02 07:49:00,
2013-07-02 03:54:00,70.7,69.5,29.94,South,187,0.0,0.0,96,0.00,,,0.00,Wunderground v.1.15,2013-07-02 07:54:00,
2013-07-02 03:59:00,70.8,69.6,29.94,South,187,0.0,0.0,96,0.00,,,0.00,Wunderground v.1.15,2013-07-02 07:59:00,
2013-07-02 04:04:00,70.8,69.3,29.94,South,187,0.0,0.0,95,0.00,,,0.00,Wunderground v.1.15,2013-07-02 08:04:00,
2013-07-02 04:10:00,70.8,69.0,29.94,South,187,0.0,0.0,95,0.00,,,0.00,weatherlink.com 1.10,2013-07-02 08:10:00,
2013-07-02 04:15:00,70.9,69.7,29.94,South,187,0.0,0.0,96,0.00,,,0.00,Wunderground v.1.15,2013-07-02 08:15:00,
2013-07-02 04:20:00,70.9,69.4,29.95,South,187,0.0,0.0,95,0.00,,,0.00,Wunderground v.1.15,2013-07-02 08:20:00,
2013-07-02 04:26:00,70.9,70.0,29.95,South,187,0.0,1.0,96,0.00,,,0.00,weatherlink.com 1.10,2013-07-02 08:26:00,
2013-07-02 04:31:00,70.9,69.7,29.95,South,187,0.0,0.0,96,0.00,,,0.00,Wunderground v.1.15,2013-07-02 08:31:00,
2013-07-02 04:36:00,70.9,69.7,29.95,South,187,0.0,0.0,96,0.00,,,0.00,Wunderground v.1.15,2013-07-02 08:36:00,
2013-07-02 04:41:00,71.0,70.0,29.95,South,187,0.0,0.0,96,0.01,,,0.01,weatherlink.com 1.10,2013-07-02 08:41:00,
2013-07-02 04:46:00,71.0,69.8,29.95,South,187,0.0,0.0,96,0.00,,,0.01,Wunderground v.1.15,2013-07-02 08:46:00,
2013-07-02 04:52:00,71.0,69.8,29.95,South,187,0.0,0.0,96,0.08,,,0.02,Wunderground v.1.15,2013-07-02 08:52:00,
2013-07-02 04:57:00,70.9,69.7,29.95,South,187,0.0,0.0,96,0.06,,,0.02,Wunderground v.1.15,2013-07-02 08:57:00,
2013-07-02 05:02:00,70.9,69.7,29.95,South,187,0.0,0.0,96,0.04,,,0.02,Wunderground v.1.15,2013-07-02 09:02:00,
2013-07-02 05:07:00,70.8,69.6,29.96,South,187,0.0,0.0,96,0.00,,,0.02,Wunderground v.1.15,2013-07-02 09:07:00,
2013-07-02 05:12:00,70.8,69.6,29.96,South,187,0.0,0.0,96,0.00,,,0.02,Wunderground v.1.15,2013-07-02 09:12:00,
2013-07-02 05:18:00,70.7,69.5,29.96,South,187,0.0,0.0,96,0.00,,,0.02,Wunderground v.1.15,2013-07-02 09:18:00,
2013-07-02 05:23:00,70.7,69.5,29.96,South,187,0.0,0.0,96,0.00,,,0.02,Wunderground v.1.15,2013-07-02 09:23:00,
2013-07-02 05:29:00,70.7,69.8,29.96,South,187,0.0,0.0,97,0.00,,,0.02,Wunderground v.1.15,2013-07-02 09:29:00,
2013-07-02 05:34:00,70.6,69.7,29.96,South,187,0.0,0.0,97,0.00,,,0.02,Wunderground v.1.15,2013-07-02 09:34:00,
2013-07-02 05:40:00,70.6,69.7,29.96,South,187,0.0,0.0,97,0.00,,,0.02,Wunderground v.1.15,2013-07-02 09:40:00,
2013-07-02 05:45:00,70.6,69.7,29.97,South,187,0.0,0.0,97,0.00,,,0.02,Wunderground v.1.15,2013-07-02 09:45:00,
2013-07-02 05:50:00,70.5,69.6,29.97,South,187,0.0,0.0,97,0.00,,,0.02,Wunderground v.1.15,2013-07-02 09:50:00,
2013-07-02 05:56:00,70.5,70.0,29.97,South,187,0.0,0.0,97,0.00,,,0.02,weatherlink.com 1.10,2013-07-02 09:56:00,
2013-07-02 06:01:00,70.6,69.7,29.97,South,187,0.0,0.0,97,0.00,,,0.02,Wunderground v.1.15,2013-07-02 10:01:00,
2013-07-02 06:06:00,70.6,69.7,29.97,South,187,0.0,0.0,97,0.00,,,0.02,Wunderground v.1.15,2013-07-02 10:06:00,
2013-07-02 06:11:00,70.6,69.7,29.98,South,187,0.0,0.0,97,0.00,,,0.02,Wunderground v.1.15,2013-07-02 10:11:00,
2013-07-02 06:17:00,70.6,69.7,29.98,South,187,0.0,0.0,97,0.00,,,0.02,Wunderground v.1.15,2013-07-02 10:17:00,
2013-07-02 06:22:00,70.6,69.7,29.98,South,187,0.0,0.0,97,0.00,,,0.02,Wunderground v.1.15,2013-07-02 10:22:00,
2013-07-02 06:27:00,70.6,70.0,29.98,South,187,0.0,0.0,97,0.00,,,0.02,weatherlink.com 1.10,2013-07-02 10:27:00,
2013-07-02 06:33:00,70.6,69.7,29.99,South,187,0.0,0.0,97,0.00,,,0.02,Wunderground v.1.15,2013-07-02 10:33:00,
2013-07-02 06:38:00,70.7,69.8,29.99,South,187,0.0,0.0,97,0.00,,,0.02,Wunderground v.1.15,2013-07-02 10:38:00,
2013-07-02 06:43:00,70.7,70.1,29.99,South,187,0.0,0.0,98,0.00,,,0.02,Wunderground v.1.15,2013-07-02 10:43:00,
2013-07-02 06:48:00,70.7,69.8,29.99,South,187,0.0,0.0,97,0.00,,,0.02,Wunderground v.1.15,2013-07-02 10:48:00,
2013-07-02 06:53:00,70.7,69.8,29.99,South,187,0.0,0.0,97,0.00,,,0.02,Wunderground v.1.15,2013-07-02 10:53:00,
2013-07-02 06:59:00,70.8,69.9,29.99,South,187,0.0,0.0,97,0.00,,,0.02,Wunderground v.1.15,2013-07-02 10:59:00,
2013-07-02 07:04:00,70.9,70.3,29.99,South,187,0.0,0.0,98,0.00,,,0.02,Wunderground v.1.15,2013-07-02 11:04:00,
2013-07-02 07:10:00,71.0,70.4,29.99,South,187,0.0,0.0,98,0.00,,,0.02,Wunderground v.1.15,2013-07-02 11:10:00,
2013-07-02 07:15:00,71.1,70.5,29.99,South,187,0.0,0.0,98,0.00,,,0.02,Wunderground v.1.15,2013-07-02 11:15:00,
2013-07-02 07:20:00,71.1,70.5,29.99,South,187,0.0,0.0,98,0.00,,,0.02,Wunderground v.1.15,2013-07-02 11:20:00,
2013-07-02 07:25:00,71.1,70.5,29.99,South,187,0.0,0.0,98,0.00,,,0.02,Wunderground v.1.15,2013-07-02 11:25:00,
2013-07-02 07:30:00,71.1,71.0,29.99,South,187,0.0,0.0,98,0.00,,,0.02,weatherlink.com 1.10,2013-07-02 11:30:00,
2013-07-02 07:35:00,71.3,70.7,30.00,South,187,0.0,0.0,98,0.00,,,0.02,Wunderground v.1.15,2013-07-02 11:35:00,
2013-07-02 07:41:00,71.5,70.9,30.00,SSE,167,0.0,0.0,98,0.00,,,0.02,Wunderground v.1.15,2013-07-02 11:41:00,
2013-07-02 07:46:00,71.7,71.1,30.00,SSE,167,0.0,0.0,98,0.00,,,0.02,Wunderground v.1.15,2013-07-02 11:46:00,
2013-07-02 07:51:00,71.9,71.3,30.00,NNE,12,0.0,0.0,98,0.00,,,0.02,Wunderground v.1.15,2013-07-02 11:51:00,
2013-07-02 07:56:00,72.1,71.2,30.00,NNE,12,0.0,0.0,97,0.00,,,0.02,Wunderground v.1.15,2013-07-02 11:56:00,
2013-07-02 08:01:00,72.3,71.4,30.00,NNE,12,0.0,0.0,97,0.00,,,0.02,Wunderground v.1.15,2013-07-02 12:01:00,
2013-07-02 08:06:00,72.5,71.6,30.00,NNE,13,0.0,0.0,97,0.00,,,0.02,Wunderground v.1.15,2013-07-02 12:06:00,
2013-07-02 08:11:00,72.7,71.5,30.01,NNE,13,0.0,1.0,96,0.00,,,0.02,Wunderground v.1.15,2013-07-02 12:11:00,
2013-07-02 08:16:00,72.9,71.7,30.01,ESE,121,1.0,1.0,96,0.00,,,0.02,Wunderground v.1.15,2013-07-02 12:16:00,
2013-07-02 08:22:00,73.2,72.0,30.01,ESE,121,0.0,1.0,96,0.00,,,0.02,Wunderground v.1.15,2013-07-02 12:22:00,
2013-07-02 08:27:00,73.4,71.9,30.01,ESE,121,0.0,1.0,95,0.00,,,0.02,Wunderground v.1.15,2013-07-02 12:27:00,
2013-07-02 08:32:00,73.4,71.3,30.01,ESE,121,0.0,1.0,93,0.00,,,0.02,Wunderground v.1.15,2013-07-02 12:32:00,
2013-07-02 08:38:00,73.5,71.7,30.01,ESE,121,0.0,2.0,94,0.00,,,0.02,Wunderground v.1.15,2013-07-02 12:38:00,
2013-07-02 08:43:00,73.7,71.5,30.01,ESE,121,0.0,0.0,93,0.00,,,0.02,Wunderground v.1.15,2013-07-02 12:43:00,
2013-07-02 08:48:00,73.9,71.7,30.01,ESE,121,0.0,1.0,93,0.00,,,0.02,Wunderground v.1.15,2013-07-02 12:48:00,
2013-07-02 08:53:00,74.0,71.8,30.01,ESE,121,0.0,1.0,93,0.00,,,0.02,Wunderground v.1.15,2013-07-02 12:53:00,
2013-07-02 08:58:00,74.2,71.7,30.02,East,98,0.0,1.0,92,0.00,,,0.02,Wunderground v.1.15,2013-07-02 12:58:00,
2013-07-02 09:04:00,74.4,71.9,30.02,NNW,345,0.0,1.0,92,0.00,,,0.02,Wunderground v.1.15,2013-07-02 13:04:00,
2013-07-02 09:10:00,74.8,72.3,30.02,NNW,344,0.0,0.0,92,0.00,,,0.02,Wunderground v.1.15,2013-07-02 13:10:00,
2013-07-02 09:15:00,75.1,72.3,30.02,NNW,336,0.0,1.0,91,0.00,,,0.02,Wunderground v.1.15,2013-07-02 13:15:00,
2013-07-02 09:21:00,75.2,71.7,30.02,NNW,332,1.0,1.0,89,0.00,,,0.02,Wunderground v.1.15,2013-07-02 13:21:00,
2013-07-02 09:26:00,75.3,71.8,30.02,SSW,202,1.0,2.0,89,0.00,,,0.02,Wunderground v.1.15,2013-07-02 13:26:00,
2013-07-02 09:32:00,75.5,72.0,30.02,SSW,202,1.0,2.0,89,0.00,,,0.02,Wunderground v.1.15,2013-07-02 13:32:00,
2013-07-02 09:37:00,75.7,72.2,30.02,SSW,209,1.0,2.0,89,0.00,,,0.02,Wunderground v.1.15,2013-07-02 13:37:00,
2013-07-02 09:43:00,76.0,72.2,30.02,NW,325,1.0,2.0,88,0.00,,,0.02,Wunderground v.1.15,2013-07-02 13:43:00,
2013-07-02 09:48:00,76.1,72.3,30.02,SSW,201,1.0,2.0,88,0.00,,,0.02,Wunderground v.1.15,2013-07-02 13:48:00,
2013-07-02 09:54:00,76.2,72.4,30.02,SSW,201,1.0,2.0,88,0.00,,,0.02,Wunderground v.1.15,2013-07-02 13:54:00,
2013-07-02 09:59:00,76.4,73.2,30.02,SSW,201,1.0,2.0,90,0.00,,,0.02,Wunderground v.1.15,2013-07-02 13:59:00,
2013-07-02 10:04:00,76.5,72.7,30.02,SSW,196,1.0,1.0,88,0.00,,,0.02,Wunderground v.1.15,2013-07-02 14:04:00,
2013-07-02 10:10:00,76.7,72.2,30.02,SSW,196,1.0,1.0,86,0.00,,,0.02,Wunderground v.1.15,2013-07-02 14:10:00,
2013-07-02 10:15:00,76.9,72.4,30.03,SSW,196,0.0,1.0,86,0.00,,,0.02,Wunderground v.1.15,2013-07-02 14:15:00,
2013-07-02 10:20:00,77.1,72.6,30.03,SSW,200,1.0,1.0,86,0.00,,,0.02,Wunderground v.1.15,2013-07-02 14:20:00,
2013-07-02 10:26:00,77.3,72.4,30.03,SSW,200,1.0,1.0,85,0.00,,,0.02,Wunderground v.1.15,2013-07-02 14:26:00,
2013-07-02 10:31:00,77.4,72.9,30.03,SSW,200,1.0,1.0,86,0.00,,,0.02,Wunderground v.1.15,2013-07-02 14:31:00,
2013-07-02 10:36:00,77.5,72.6,30.03,SSW,200,0.0,2.0,85,0.00,,,0.02,Wunderground v.1.15,2013-07-02 14:36:00,
2013-07-02 10:42:00,77.5,72.3,30.03,SSW,200,0.0,1.0,84,0.00,,,0.02,Wunderground v.1.15,2013-07-02 14:42:00,
2013-07-02 10:47:00,77.6,72.4,30.03,SSW,200,0.0,1.0,84,0.00,,,0.02,Wunderground v.1.15,2013-07-02 14:47:00,
2013-07-02 10:52:00,77.6,72.4,30.03,SSW,200,0.0,1.0,84,0.00,,,0.02,Wunderground v.1.15,2013-07-02 14:52:00,
2013-07-02 10:57:00,77.5,72.3,30.03,SSW,200,0.0,1.0,84,0.00,,,0.02,Wunderground v.1.15,2013-07-02 14:57:00,
2013-07-02 11:02:00,77.4,71.8,30.03,SSW,200,0.0,0.0,83,0.00,,,0.02,Wunderground v.1.15,2013-07-02 15:02:00,
2013-07-02 11:08:00,77.3,72.1,30.03,SSW,200,0.0,1.0,84,0.00,,,0.02,Wunderground v.1.15,2013-07-02 15:08:00,
2013-07-02 11:13:00,77.4,72.2,30.03,SSW,200,0.0,1.0,84,0.00,,,0.02,Wunderground v.1.15,2013-07-02 15:13:00,
2013-07-02 11:18:00,77.7,72.5,30.03,SSW,200,0.0,1.0,84,0.00,,,0.02,Wunderground v.1.15,2013-07-02 15:18:00,
2013-07-02 11:23:00,78.2,73.3,30.03,SSW,200,0.0,1.0,85,0.00,,,0.02,Wunderground v.1.15,2013-07-02 15:23:00,
2013-07-02 11:28:00,78.6,72.3,30.03,SSW,200,0.0,1.0,81,0.00,,,0.02,Wunderground v.1.15,2013-07-02 15:28:00,
2013-07-02 11:34:00,78.6,71.9,30.04,SSW,192,1.0,2.0,80,0.00,,,0.02,Wunderground v.1.15,2013-07-02 15:34:00,
2013-07-02 11:39:00,78.8,72.5,30.04,SSW,192,1.0,2.0,81,0.00,,,0.02,Wunderground v.1.15,2013-07-02 15:39:00,
2013-07-02 11:44:00,78.9,72.9,30.04,SSW,192,1.0,2.0,82,0.00,,,0.02,Wunderground v.1.15,2013-07-02 15:44:00,
2013-07-02 11:49:00,78.9,71.8,30.04,SSW,192,1.0,3.0,79,0.00,,,0.02,Wunderground v.1.15,2013-07-02 15:49:00,
2013-07-02 11:54:00,78.9,72.6,30.04,SSW,192,1.0,1.0,81,0.00,,,0.02,Wunderground v.1.15,2013-07-02 15:54:00,
2013-07-02 11:59:00,79.2,71.7,30.04,WNW,289,1.0,3.0,78,0.00,,,0.02,Wunderground v.1.15,2013-07-02 15:59:00,
2013-07-02 12:04:00,79.6,72.9,30.03,WNW,291,1.0,1.0,80,0.00,,,0.02,Wunderground v.1.15,2013-07-02 16:04:00,
2013-07-02 12:10:00,79.9,72.8,30.03,North,355,1.0,1.0,79,0.00,,,0.02,Wunderground v.1.15,2013-07-02 16:10:00,
2013-07-02 12:15:00,80.0,72.5,30.03,ESE,103,1.0,5.0,78,0.00,,,0.02,Wunderground v.1.15,2013-07-02 16:15:00,
2013-07-02 12:20:00,80.2,73.1,30.03,South,174,1.0,1.0,79,0.00,,,0.02,Wunderground v.1.15,2013-07-02 16:20:00,
2013-07-02 12:26:00,80.5,73.4,30.03,ESE,115,1.0,2.0,79,0.00,,,0.02,Wunderground v.1.15,2013-07-02 16:26:00,
2013-07-02 12:31:00,80.4,72.5,30.03,SSE,150,1.0,3.0,77,0.00,,,0.02,Wunderground v.1.15,2013-07-02 16:31:00,
2013-07-02 12:36:00,80.4,73.7,30.03,SSE,150,0.0,3.0,80,0.00,,,0.02,Wunderground v.1.15,2013-07-02 16:36:00,
2013-07-02 12:42:00,80.0,72.9,30.03,South,174,1.0,1.0,79,0.00,,,0.02,Wunderground v.1.15,2013-07-02 16:42:00,
2013-07-02 12:47:00,79.8,73.4,30.03,East,99,1.0,2.0,81,0.00,,,0.02,Wunderground v.1.15,2013-07-02 16:47:00,
2013-07-02 12:52:00,80.3,73.2,30.03,South,177,1.0,2.0,79,0.00,,,0.02,Wunderground v.1.15,2013-07-02 16:52:00,
2013-07-02 12:57:00,80.9,73.4,30.02,South,180,2.0,3.0,78,0.00,,,0.02,Wunderground v.1.15,2013-07-02 16:57:00,
2013-07-02 13:02:00,81.1,73.2,30.02,South,184,2.0,4.0,77,0.00,,,0.02,Wunderground v.1.15,2013-07-02 17:02:00,
2013-07-02 13:09:00,81.2,73.7,30.02,South,178,2.0,4.0,78,0.00,,,0.02,Wunderground v.1.15,2013-07-02 17:09:00,
2013-07-02 13:15:00,81.1,72.8,30.03,South,177,2.0,5.0,76,0.00,,,0.02,Wunderground v.1.15,2013-07-02 17:15:00,
2013-07-02 13:20:00,81.2,74.1,30.03,South,176,2.0,2.0,79,0.00,,,0.02,Wunderground v.1.15,2013-07-02 17:20:00,
2013-07-02 13:25:00,81.2,73.7,30.03,South,177,1.0,2.0,78,0.00,,,0.02,Wunderground v.1.15,2013-07-02 17:25:00,
2013-07-02 13:31:00,81.0,72.7,30.03,West,263,1.0,2.0,76,0.00,,,0.02,Wunderground v.1.15,2013-07-02 17:31:00,
2013-07-02 13:36:00,80.7,72.8,30.03,WSW,257,1.0,2.0,77,0.00,,,0.02,Wunderground v.1.15,2013-07-02 17:36:00,
2013-07-02 13:41:00,80.5,73.0,30.03,SSW,196,1.0,2.0,78,0.00,,,0.02,Wunderground v.1.15,2013-07-02 17:41:00,
2013-07-02 13:47:00,80.3,72.0,30.03,SSW,209,1.0,4.0,76,0.00,,,0.02,weatherlink.com 1.10,2013-07-02 17:47:00,
2013-07-02 13:52:00,80.3,72.4,30.03,SSE,148,1.0,2.0,77,0.00,,,0.02,Wunderground v.1.15,2013-07-02 17:52:00,
2013-07-02 13:57:00,80.2,71.6,30.03,South,175,1.0,2.0,75,0.00,,,0.02,Wunderground v.1.15,2013-07-02 17:57:00,
2013-07-02 14:02:00,80.0,72.1,30.03,South,182,1.0,2.0,77,0.00,,,0.02,Wunderground v.1.15,2013-07-02 18:02:00,
2013-07-02 14:07:00,79.9,72.8,30.03,SSW,192,1.0,3.0,79,0.00,,,0.02,Wunderground v.1.15,2013-07-02 18:07:00,
2013-07-02 14:12:00,79.7,71.8,30.03,South,190,1.0,1.0,77,0.00,,,0.02,Wunderground v.1.15,2013-07-02 18:12:00,
2013-07-02 14:18:00,79.6,73.0,30.03,South,185,3.0,4.0,79,0.00,,,0.02,weatherlink.com 1.10,2013-07-02 18:18:00,
2013-07-02 14:23:00,79.4,72.7,30.03,South,184,1.0,2.0,80,0.00,,,0.02,Wunderground v.1.15,2013-07-02 18:23:00,
2013-07-02 14:28:00,79.3,72.6,30.03,South,179,2.0,3.0,80,0.00,,,0.02,Wunderground v.1.15,2013-07-02 18:28:00,
2013-07-02 14:34:00,79.2,72.5,30.03,SSE,157,1.0,2.0,80,0.00,,,0.02,Wunderground v.1.15,2013-07-02 18:34:00,
2013-07-02 14:39:00,79.1,72.8,30.04,SSW,193,2.0,3.0,81,0.00,,,0.02,Wunderground v.1.15,2013-07-02 18:39:00,
2013-07-02 14:44:00,79.3,73.0,30.04,South,182,2.0,3.0,81,0.00,,,0.02,Wunderground v.1.15,2013-07-02 18:44:00,
2013-07-02 14:50:00,79.4,73.4,30.04,SSW,198,1.0,1.0,82,0.00,,,0.02,Wunderground v.1.15,2013-07-02 18:50:00,
2013-07-02 14:56:00,79.3,73.0,30.04,South,184,1.0,2.0,81,0.00,,,0.02,Wunderground v.1.15,2013-07-02 18:56:00,
2013-07-02 15:01:00,79.1,73.1,30.04,NE,34,2.0,2.0,82,0.00,,,0.02,Wunderground v.1.15,2013-07-02 19:01:00,
2013-07-02 15:07:00,78.9,72.0,30.04,SW,218,3.0,8.0,80,0.00,,,0.02,weatherlink.com 1.10,2013-07-02 19:07:00,
2013-07-02 15:12:00,78.5,71.4,30.03,WSW,243,2.0,2.0,79,0.00,,,0.02,Wunderground v.1.15,2013-07-02 19:12:00,
2013-07-02 15:18:00,78.2,72.0,30.04,SE,138,1.0,4.0,80,0.00,,,0.02,weatherlink.com 1.10,2013-07-02 19:18:00,
2013-07-02 15:23:00,78.0,71.7,30.04,NNE,15,1.0,2.0,81,0.00,,,0.02,Wunderground v.1.15,2013-07-02 19:23:00,
2013-07-02 15:28:00,78.1,72.2,30.04,NNE,30,1.0,2.0,82,0.00,,,0.02,Wunderground v.1.15,2013-07-02 19:28:00,
2013-07-02 15:33:00,78.2,72.3,30.04,SSE,166,1.0,2.0,82,0.00,,,0.02,Wunderground v.1.15,2013-07-02 19:33:00,
2013-07-02 15:38:00,78.4,72.4,30.03,SSE,155,1.0,2.0,82,0.00,,,0.02,Wunderground v.1.15,2013-07-02 19:38:00,
2013-07-02 15:43:00,78.5,72.5,30.03,ENE,71,1.0,2.0,82,0.00,,,0.02,Wunderground v.1.15,2013-07-02 19:43:00,
2013-07-02 15:49:00,78.6,72.3,30.03,South,178,1.0,3.0,81,0.00,,,0.02,Wunderground v.1.15,2013-07-02 19:49:00,
2013-07-02 15:54:00,78.5,72.5,30.03,South,178,2.0,3.0,82,0.00,,,0.02,Wunderground v.1.15,2013-07-02 19:54:00,
2013-07-02 15:59:00,78.7,72.7,30.03,South,178,1.0,3.0,82,0.00,,,0.02,Wunderground v.1.15,2013-07-02 19:59:00,
2013-07-02 16:04:00,79.1,73.8,30.03,SW,218,1.0,2.0,84,0.00,,,0.02,Wunderground v.1.15,2013-07-02 20:04:00,
2013-07-02 16:10:00,79.4,72.7,30.03,SW,214,1.0,1.0,80,0.00,,,0.02,Wunderground v.1.15,2013-07-02 20:10:00,
2013-07-02 16:16:00,79.3,72.6,30.03,SSW,207,1.0,3.0,80,0.00,,,0.02,Wunderground v.1.15,2013-07-02 20:16:00,
2013-07-02 16:21:00,79.3,72.2,30.03,South,169,1.0,2.0,79,0.00,,,0.02,Wunderground v.1.15,2013-07-02 20:21:00,
2013-07-02 16:26:00,79.5,72.8,30.03,South,175,1.0,3.0,80,0.00,,,0.02,Wunderground v.1.15,2013-07-02 20:26:00,
2013-07-02 16:31:00,79.7,72.2,30.03,SE,130,1.0,2.0,78,0.00,,,0.02,Wunderground v.1.15,2013-07-02 20:31:00,
2013-07-02 16:37:00,79.3,71.8,30.03,SSE,160,2.0,4.0,78,0.00,,,0.02,Wunderground v.1.15,2013-07-02 20:37:00,
2013-07-02 16:42:00,79.0,71.9,30.03,SSE,160,1.0,1.0,79,0.00,,,0.02,Wunderground v.1.15,2013-07-02 20:42:00,
2013-07-02 16:48:00,78.9,72.6,30.03,SSE,163,0.0,1.0,81,0.00,,,0.02,Wunderground v.1.15,2013-07-02 20:48:00,
2013-07-02 16:54:00,78.8,72.1,30.03,South,180,0.0,2.0,80,0.00,,,0.02,Wunderground v.1.15,2013-07-02 20:54:00,
2013-07-02 16:59:00,78.5,72.2,30.04,South,180,1.0,2.0,81,0.00,,,0.02,Wunderground v.1.15,2013-07-02 20:59:00,
2013-07-02 17:04:00,78.3,72.0,30.04,South,180,1.0,1.0,81,0.00,,,0.02,Wunderground v.1.15,2013-07-02 21:04:00,
2013-07-02 17:10:00,78.2,72.3,30.04,South,180,1.0,1.0,82,0.00,,,0.02,Wunderground v.1.15,2013-07-02 21:10:00,
2013-07-02 17:15:00,78.1,72.2,30.04,South,180,0.0,1.0,82,0.00,,,0.02,Wunderground v.1.15,2013-07-02 21:15:00,
2013-07-02 17:21:00,77.9,71.2,30.04,South,175,1.0,3.0,80,0.00,,,0.02,Wunderground v.1.15,2013-07-02 21:21:00,
2013-07-02 17:27:00,77.7,71.4,30.04,South,175,1.0,3.0,81,0.00,,,0.02,Wunderground v.1.15,2013-07-02 21:27:00,
2013-07-02 17:32:00,77.4,71.1,30.04,South,175,0.0,1.0,81,0.00,,,0.02,Wunderground v.1.15,2013-07-02 21:32:00,
2013-07-02 17:38:00,77.2,71.3,30.04,South,175,0.0,1.0,82,0.00,,,0.02,Wunderground v.1.15,2013-07-02 21:38:00,
2013-07-02 17:43:00,77.0,71.4,30.04,South,175,0.0,1.0,83,0.00,,,0.02,Wunderground v.1.15,2013-07-02 21:43:00,
2013-07-02 17:48:00,76.8,71.2,30.04,South,175,0.0,1.0,83,0.00,,,0.02,Wunderground v.1.15,2013-07-02 21:48:00,
2013-07-02 17:53:00,76.6,71.4,30.05,South,175,0.0,1.0,84,0.00,,,0.02,Wunderground v.1.15,2013-07-02 21:53:00,
2013-07-02 17:58:00,76.3,71.1,30.05,NNE,24,1.0,1.0,84,0.00,,,0.02,Wunderground v.1.15,2013-07-02 21:58:00,
2013-07-02 18:04:00,75.8,70.3,30.05,SSE,156,1.0,1.0,83,0.00,,,0.02,Wunderground v.1.15,2013-07-02 22:04:00,
2013-07-02 18:10:00,75.5,70.3,30.05,SSE,156,1.0,1.0,84,0.00,,,0.02,Wunderground v.1.15,2013-07-02 22:10:00,
2013-07-02 18:15:00,75.1,69.9,30.06,SSE,156,1.0,1.0,84,0.00,,,0.02,Wunderground v.1.15,2013-07-02 22:15:00,
2013-07-02 18:20:00,74.9,70.0,30.06,SSE,157,2.0,2.0,85,0.00,,,0.02,weatherlink.com 1.10,2013-07-02 22:20:00,
2013-07-02 18:25:00,74.7,70.2,30.06,SSE,158,0.0,2.0,86,0.00,,,0.02,Wunderground v.1.15,2013-07-02 22:25:00,
2013-07-02 18:31:00,74.4,69.6,30.06,SSE,159,0.0,1.0,85,0.00,,,0.02,Wunderground v.1.15,2013-07-02 22:31:00,
2013-07-02 18:36:00,74.2,69.7,30.06,SSE,159,0.0,1.0,86,0.00,,,0.02,Wunderground v.1.15,2013-07-02 22:36:00,
2013-07-02 18:42:00,74.1,69.6,30.06,SSE,159,0.0,0.0,86,0.00,,,0.02,Wunderground v.1.15,2013-07-02 22:42:00,
2013-07-02 18:47:00,74.0,69.9,30.07,SSE,159,0.0,1.0,87,0.00,,,0.02,Wunderground v.1.15,2013-07-02 22:47:00,
2013-07-02 18:52:00,73.9,69.8,30.07,SSE,159,0.0,0.0,87,0.00,,,0.02,Wunderground v.1.15,2013-07-02 22:52:00,
2013-07-02 18:57:00,73.9,69.8,30.07,SSE,159,0.0,1.0,87,0.00,,,0.02,Wunderground v.1.15,2013-07-02 22:57:00,
2013-07-02 19:04:00,73.9,69.8,30.07,SSE,159,0.0,1.0,87,0.00,,,0.02,Wunderground v.1.15,2013-07-02 23:04:00,
2013-07-02 19:10:00,73.9,69.4,30.07,SSE,159,0.0,0.0,86,0.00,,,0.02,Wunderground v.1.15,2013-07-02 23:10:00,
2013-07-02 19:15:00,74.0,69.9,30.07,SSE,159,0.0,1.0,87,0.00,,,0.02,Wunderground v.1.15,2013-07-02 23:15:00,
2013-07-02 19:20:00,74.0,69.9,30.07,SSE,159,0.0,1.0,87,0.00,,,0.02,Wunderground v.1.15,2013-07-02 23:20:00,
2013-07-02 19:25:00,74.0,69.9,30.07,SSE,159,0.0,1.0,87,0.00,,,0.02,Wunderground v.1.15,2013-07-02 23:25:00,
2013-07-02 19:30:00,74.0,69.9,30.07,SSE,159,0.0,0.0,87,0.00,,,0.02,Wunderground v.1.15,2013-07-02 23:30:00,
2013-07-02 19:35:00,73.9,69.8,30.07,SSE,159,0.0,0.0,87,0.00,,,0.02,Wunderground v.1.15,2013-07-02 23:35:00,
2013-07-02 19:41:00,73.9,69.8,30.07,SSE,159,0.0,0.0,87,0.00,,,0.02,Wunderground v.1.15,2013-07-02 23:41:00,
2013-07-02 19:47:00,73.8,70.0,30.08,SSE,159,0.0,1.0,88,0.00,,,0.02,Wunderground v.1.15,2013-07-02 23:47:00,
2013-07-02 19:53:00,73.7,69.9,30.08,SSE,159,0.0,0.0,88,0.00,,,0.02,Wunderground v.1.15,2013-07-02 23:53:00,
2013-07-02 19:58:00,73.6,69.8,30.08,SSE,159,0.0,0.0,88,0.00,,,0.02,Wunderground v.1.15,2013-07-02 23:58:00,
2013-07-02 20:04:00,73.5,69.7,30.08,SSE,159,0.0,0.0,88,0.00,,,0.02,Wunderground v.1.15,2013-07-03 00:04:00,
2013-07-02 20:07:00,73.5,70.0,30.08,SSE,159,0.0,0.0,88,0.00,,,0.02,weatherlink.com 1.10,2013-07-03 00:07:00,
2013-07-02 20:12:00,73.4,69.6,30.08,SSE,159,0.0,0.0,88,0.00,,,0.02,Wunderground v.1.15,2013-07-03 00:12:00,
2013-07-02 20:17:00,73.2,69.4,30.08,SSE,159,0.0,0.0,88,0.00,,,0.02,Wunderground v.1.15,2013-07-03 00:17:00,
2013-07-02 20:22:00,73.1,69.3,30.08,SSE,159,0.0,0.0,88,0.00,,,0.02,Wunderground v.1.15,2013-07-03 00:22:00,
2013-07-02 20:23:00,73.1,69.3,30.09,SSE,159,0.0,0.0,88,0.00,,,0.02,Wunderground v.1.15,2013-07-03 00:23:00,
2013-07-02 20:25:00,73.0,69.2,30.08,SSE,159,0.0,0.0,88,0.00,,,0.02,Wunderground v.1.15,2013-07-03 00:25:00,
2013-07-02 20:28:00,72.9,69.1,30.09,SSW,213,0.0,0.0,88,0.00,,,0.02,Wunderground v.1.15,2013-07-03 00:28:00,
2013-07-02 20:34:00,72.8,69.4,30.09,SSW,213,0.0,0.0,89,0.00,,,0.02,Wunderground v.1.15,2013-07-03 00:34:00,
2013-07-02 20:39:00,72.6,69.2,30.08,SSW,213,0.0,0.0,89,0.00,,,0.02,Wunderground v.1.15,2013-07-03 00:39:00,
2013-07-02 20:44:00,72.5,69.4,30.08,SSW,213,0.0,0.0,90,0.00,,,0.02,Wunderground v.1.15,2013-07-03 00:44:00,
2013-07-02 20:49:00,72.4,69.3,30.08,SSW,213,0.0,0.0,90,0.00,,,0.02,Wunderground v.1.15,2013-07-03 00:49:00,
2013-07-02 20:55:00,72.3,69.2,30.08,SSW,213,0.0,0.0,90,0.00,,,0.02,Wunderground v.1.15,2013-07-03 00:55:00,
2013-07-02 21:00:00,72.2,69.1,30.08,SSW,213,0.0,0.0,90,0.00,,,0.02,Wunderground v.1.15,2013-07-03 01:00:00,
2013-07-02 21:01:00,72.2,69.1,30.08,SSW,213,0.0,0.0,90,0.00,,,0.02,Wunderground v.1.15,2013-07-03 01:01:00,
2013-07-02 21:05:00,72.1,69.3,30.08,SSW,213,0.0,0.0,91,0.00,,,0.02,Wunderground v.1.15,2013-07-03 01:05:00,
2013-07-02 21:10:00,72.0,69.0,30.08,SSW,213,0.0,0.0,91,0.00,,,0.02,weatherlink.com 1.10,2013-07-03 01:10:00,
2013-07-02 21:16:00,71.8,69.0,30.08,SSW,213,0.0,0.0,91,0.00,,,0.02,Wunderground v.1.15,2013-07-03 01:16:00,
2013-07-02 21:21:00,71.6,69.2,30.08,SSW,213,0.0,0.0,92,0.00,,,0.02,Wunderground v.1.15,2013-07-03 01:21:00,
2013-07-02 21:26:00,71.5,69.1,30.08,SSW,213,0.0,0.0,92,0.00,,,0.02,Wunderground v.1.15,2013-07-03 01:26:00,
2013-07-02 21:28:00,71.5,69.1,30.08,SSW,213,0.0,0.0,92,0.00,,,0.02,Wunderground v.1.15,2013-07-03 01:28:00,
2013-07-02 21:33:00,71.4,69.0,30.08,SSW,213,0.0,0.0,92,0.00,,,0.02,Wunderground v.1.15,2013-07-03 01:33:00,
2013-07-02 21:38:00,71.2,68.8,30.08,SSW,213,0.0,0.0,92,0.00,,,0.02,Wunderground v.1.15,2013-07-03 01:38:00,
2013-07-02 21:44:00,71.1,68.7,30.09,SSW,213,0.0,0.0,92,0.00,,,0.02,Wunderground v.1.15,2013-07-03 01:44:00,
2013-07-02 21:49:00,71.0,68.9,30.09,SSW,213,0.0,0.0,93,0.00,,,0.02,Wunderground v.1.15,2013-07-03 01:49:00,
2013-07-02 21:53:00,70.9,68.8,30.09,SSW,213,0.0,0.0,93,0.00,,,0.02,Wunderground v.1.15,2013-07-03 01:53:00,
2013-07-02 21:59:00,70.8,68.7,30.10,SSW,213,0.0,0.0,93,0.00,,,0.02,Wunderground v.1.15,2013-07-03 01:59:00,
2013-07-02 22:05:00,70.7,68.6,30.10,SSW,213,0.0,0.0,93,0.00,,,0.02,Wunderground v.1.15,2013-07-03 02:05:00,
2013-07-02 22:10:00,70.6,68.5,30.10,SSW,213,0.0,0.0,93,0.00,,,0.02,Wunderground v.1.15,2013-07-03 02:10:00,
2013-07-02 22:15:00,70.6,68.5,30.10,SSW,213,0.0,0.0,93,0.00,,,0.02,Wunderground v.1.15,2013-07-03 02:15:00,
2013-07-02 22:21:00,70.5,68.4,30.10,SSW,213,0.0,0.0,93,0.00,,,0.02,Wunderground v.1.15,2013-07-03 02:21:00,
2013-07-02 22:27:00,70.4,68.3,30.10,SSW,213,0.0,0.0,93,0.00,,,0.02,Wunderground v.1.15,2013-07-03 02:27:00,
2013-07-02 22:32:00,70.4,68.6,30.10,SSW,213,0.0,0.0,94,0.00,,,0.02,Wunderground v.1.15,2013-07-03 02:32:00,
2013-07-02 22:37:00,70.3,68.5,30.10,SSW,213,0.0,0.0,94,0.00,,,0.02,Wunderground v.1.15,2013-07-03 02:37:00,
2013-07-02 22:43:00,70.4,68.6,30.10,SSW,213,0.0,0.0,94,0.00,,,0.02,Wunderground v.1.15,2013-07-03 02:43:00,
2013-07-02 22:48:00,70.3,68.5,30.10,SSW,213,0.0,0.0,94,0.00,,,0.02,Wunderground v.1.15,2013-07-03 02:48:00,
2013-07-02 22:53:00,70.3,68.5,30.10,SSW,213,0.0,0.0,94,0.00,,,0.02,Wunderground v.1.15,2013-07-03 02:53:00,
2013-07-02 22:58:00,70.3,68.5,30.10,SSW,213,0.0,0.0,94,0.00,,,0.02,Wunderground v.1.15,2013-07-03 02:58:00,
2013-07-02 23:04:00,70.3,68.5,30.10,SSW,213,0.0,0.0,94,0.00,,,0.02,Wunderground v.1.15,2013-07-03 03:04:00,
2013-07-02 23:10:00,70.3,69.0,30.10,NNE,13,0.0,1.0,94,0.00,,,0.02,weatherlink.com 1.10,2013-07-03 03:10:00,
2013-07-02 23:15:00,70.3,68.2,30.10,NNE,13,0.0,0.0,93,0.00,,,0.02,Wunderground v.1.15,2013-07-03 03:15:00,
2013-07-02 23:21:00,70.3,68.2,30.10,NNE,13,0.0,0.0,93,0.00,,,0.02,Wunderground v.1.15,2013-07-03 03:21:00,
2013-07-02 23:23:00,70.3,68.2,30.10,NNE,13,0.0,0.0,93,0.00,,,0.02,Wunderground v.1.15,2013-07-03 03:23:00,
2013-07-02 23:29:00,70.3,68.2,30.10,NNE,13,0.0,0.0,93,0.00,,,0.02,Wunderground v.1.15,2013-07-03 03:29:00,
2013-07-02 23:34:00,70.3,68.2,30.10,NNE,13,0.0,0.0,93,0.00,,,0.02,Wunderground v.1.15,2013-07-03 03:34:00,
2013-07-02 23:39:00,70.3,68.2,30.10,NNE,13,0.0,0.0,93,0.00,,,0.02,Wunderground v.1.15,2013-07-03 03:39:00,
2013-07-02 23:44:00,70.3,68.2,30.10,NNE,13,0.0,0.0,93,0.00,,,0.02,Wunderground v.1.15,2013-07-03 03:44:00,
2013-07-02 23:49:00,70.3,68.2,30.10,NNE,13,0.0,0.0,93,0.00,,,0.02,Wunderground v.1.15,2013-07-03 03:49:00,
2013-07-02 23:51:00,70.3,68.2,30.10,NNE,13,0.0,0.0,93,0.00,,,0.02,Wunderground v.1.15,2013-07-03 03:51:00,
2013-07-02 23:56:00,70.3,68.2,30.10,NNE,13,0.0,0.0,93,0.00,,,0.02,Wunderground v.1.15,2013-07-03 03:56:00,